{"data":{"norad_id":60153,"epoch":"2026-05-24T21:22:36.935328Z","epoch_age_seconds":80394,"freshness":"FRESH","line1":"1 60153U 24120U   26144.89070527  .00001206  00000+0  46850-4 0  9994","line2":"2 60153  53.1620 325.9228 0001151  74.5061 285.6068 15.34389616108129","mean_motion":15.34389616,"eccentricity":0.0001151,"inclination_deg":53.162,"raan_deg":325.9228,"arg_perigee_deg":74.5061,"mean_anomaly_deg":285.6068,"bstar":4.685e-5,"rev_number":10812,"period_min":93.848393197155,"perigee_km":461.94671955344,"apogee_km":463.52148808154,"semimajor_km":6840.8711038175,"source":"CELESTRAK","updated_at":"2026-05-25T13:38:19.191965Z"}}